Weather reports worldwide

Advertisment
Saint-Quentin, France (7061): temperature & dewpoint: 18.01.2020 02:00:00 - 24.01.2020 02:00:00 (CET)Saint-Quentin, France (7061): temperature 5cm: 18.01.2020 02:00:00 - 24.01.2020 02:00:00 (CET)Saint-Quentin, France (7061): temperature -20cm & temperature -100cm: 18.01.2020 02:00:00 - 24.01.2020 02:00:00 (CET)Saint-Quentin, France (7061): wind speed & gusts: 18.01.2020 02:00:00 - 24.01.2020 02:00:00 (CET)Saint-Quentin, France (7061): wind direction: 18.01.2020 02:00:00 - 24.01.2020 02:00:00 (CET)Saint-Quentin, France (7061): reduced air pressure: 18.01.2020 02:00:00 - 24.01.2020 02:00:00 (CET)Saint-Quentin, France (7061): visibility: 18.01.2020 02:00:00 - 24.01.2020 02:00:00 (CET)Saint-Quentin, France (7061): sunshine duration: 18.01.2020 02:00:00 - 24.01.2020 02:00:00 (CET)Saint-Quentin, France (7061): precipitation: 18.01.2020 02:00:00 - 24.01.2020 02:00:00 (CET)
Date & Time tt [°C] td [°C] tt 5cm [°C] tt -20cm [°C] tt -100cm [°C] ff [km/h] ff [kn] fx [km/h] fx [kn] dd ppp [hPa] vv [km] sd [min] rr [mm]
24.01.2020 02:00:00 1,2 -0,3 1,2 4,5 7,7 9 5 17 9 ESE 1025,7 7 0 0,0
24.01.2020 01:00:00 1,4 -0,1 1,4 4,5 7,7 9 5 17 9 SSE 1026,2 6 0 0,0
24.01.2020 00:00:00 1,6 0,4 1,6 4,5 7,7 10 5 23 13 ESE 1026,6 6 0 0,0
23.01.2020 23:00:00 1,8 1,4 1,5 4,5 7,7 11 6 16 8 ESE 1026,9 4,8 0 0,0
23.01.2020 22:00:00 1,4 1,1 1,2 4,5 7,7 4 2 8 4 NNE 1026,8 0,4 0 0,0
23.01.2020 21:00:00 1,1 0,7 1,2 4,5 7,7 6 3 13 7 NE 1026,9 1,0 0 0,0
23.01.2020 20:00:00 1,2 0,6 1,1 4,5 7,7 8 4 14 8 ENE 1026,9 2,5 0 0,0
23.01.2020 19:00:00 1,2 0,5 1,4 4,4 7,7 11 6 17 9 NE 1027,4 2,6 0 0,0
23.01.2020 18:00:00 1,4 0,5 1,5 4,4 7,8 9 5 18 10 NE 1027,6 3,7 0 0,0
23.01.2020 17:00:00 1,5 0,5 1,7 4,4 7,7 10 5 21 11 NNE 1028,0 4,4 0 0,0
23.01.2020 16:00:00 2,1 0,9 2,3 4,3 7,7 10 6 22 12 NE 1028,2 4,2 0 0,0
23.01.2020 15:00:00 2,5 1,0 3,1 4,3 7,7 13 7 23 12 NE 1028,6 4,0 0 0,0
23.01.2020 14:00:00 2,9 1,6 3,4 4,2 7,7 13 7 21 11 ENE 1029,4 6 0 0,0
23.01.2020 13:00:00 2,3 1,1 3,3 4,2 7,8 12 6 19 11 NE 1030,6 4,8 0 0,0
23.01.2020 12:00:00 2,5 1,5 3,2 4,2 7,8 10 6 18 10 NE 1031,2 4,2 0 0,0
23.01.2020 11:00:00 2,4 1,5 2,7 4,2 7,8 7 4 16 9 NE 1031,7 3,9 0 0,0
23.01.2020 10:00:00 2,1 1,8 2,0 4,2 7,8 6 4 10 6 E 1031,9 1,1 0 0,0
23.01.2020 09:00:00 1,8 1,5 1,5 4,2 7,8 5 3 8 5 ENE 1032,3 0,7 0 0,0
23.01.2020 08:00:00 1,3 0,9 1,3 4,2 7,8 5 3 13 7 ESE 1032,3 1,3 0 0,0
23.01.2020 07:00:00 1,2 0,9 1,0 4,2 7,8 6 3 9 5 ENE 1032,4 0,7 0 0,0
23.01.2020 06:00:00 1,0 0,6 1,0 4,2 7,8 6 3 13 7 E 1032,6 2,0 0 0,0
23.01.2020 05:00:00 1,4 0,7 1,3 4,2 7,8 9 5 18 10 ESE 1032,9 2,0 0 0,0
23.01.2020 04:00:00 1,7 1,0 1,5 4,2 7,8 11 6 26 14 E 1033,7 2,5 0 0,0
23.01.2020 03:00:00 1,9 1,0 1,1 4,3 7,8 16 9 26 14 ENE 1034,3 3,1 0 0,0
23.01.2020 02:00:00 1,7 0,8 0,4 4,3 7,8 14 8 21 11 ENE 1034,9 3,8 0 0,0
23.01.2020 01:00:00 1,8 0,9 1,1 4,3 7,9 17 9 31 17 ENE 1035,3 4,6 0 0,0
23.01.2020 00:00:00 1,5 0,8 -0,7 4,3 7,9 18 10 28 15 ENE 1035,6 3,7 0 0,0
22.01.2020 23:00:00 0,5 -0,2 -0,4 4,3 7,9 11 6 23 13 NE 1035,5 1,7 0 0,0
22.01.2020 22:00:00 0,5 -0,2 -0,3 4,3 7,8 14 7 26 14 NE 1035,3 1,9 0 0,0
22.01.2020 21:00:00 0,4 -0,6 -0,8 4,3 7,9 17 9 26 14 NE 1035,6 2,8 0 0,0
22.01.2020 20:00:00 0,2 -0,8 -0,7 4,3 7,9 14 8 30 16 NE 1035,7 3,0 0 0,0
22.01.2020 19:00:00 0,0 -1,0 -0,7 4,3 7,9 14 8 28 15 NE 1035,7 3,2 0 0,0
22.01.2020 18:00:00 0,3 -0,8 -0,2 4,3 7,9 11 6 21 12 NNE 1035,5 3,9 0 0,0
22.01.2020 17:00:00 0,7 -0,6 0,8 4,3 7,9 13 7 22 12 NNE 1035,3 3,5 55 0,0
22.01.2020 16:00:00 1,5 0,0 2,5 4,3 7,9 15 8 24 13 NNE 1035,6 4,3 57 0,0
22.01.2020 15:00:00 2,5 0,6 5,9 4,3 7,9 13 7 19 10 NNE 1035,4 6 60 0,0
22.01.2020 14:00:00 2,8 1,0 6,9 4,4 7,9 9 5 20 11 NNE 1036,3 7 60 0,0
22.01.2020 13:00:00 1,8 0,8 3,9 4,4 7,9 15 8 23 12 ENE 1037,0 6 60 0,0
22.01.2020 12:00:00 0,6 0,3 -0,1 4,5 8,0 9 5 15 8 NE 1037,7 4,1 4 0,0
22.01.2020 11:00:00 -0,5 -0,8 -1,7 4,5 8,0 9 5 19 11 NNE 1037,9 0,3 0 0,0
22.01.2020 10:00:00 -2,5 -2,9 -4,9 4,6 8,0 11 6 19 11 N 1037,4 0,2 15 0,0
22.01.2020 09:00:00 -4,3 -5,0 -7,5 4,6 8,0 3 2 7 4 NNW 1037,2 0,8 0 0,0
22.01.2020 08:00:00 -4,1 -4,6 -5,1 4,7 8,0 4 2 11 6 NNE 1037,3 1,1 0 0,0
22.01.2020 07:00:00 -4,0 -4,5 -6,5 4,7 8,0 6 3 11 6 N 1037,8 0,5 0 0,0
22.01.2020 06:00:00 -3,8 -4,3 -4,1 4,7 8,0 3 2 14 8 ENE 1037,4 0,2 0 0,0
22.01.2020 05:00:00 -3,3 -3,8 -3,3 4,8 8,0 9 5 21 11 NNE 1037,8 0,4 0 0,0
22.01.2020 04:00:00 -3,3 -3,7 -3,8 4,8 8,0 14 8 24 13 NNE 1038,6 0,4 0 0,0
22.01.2020 03:00:00 -3,3 -3,8 -3,9 4,9 8,0 8 5 19 11 NNE 1038,7 2,8 0 0,0
22.01.2020 02:00:00 -2,9 -3,7 -3,7 4,9 8,0 8 4 16 9 NNE 1038,2 6 0 0,0
22.01.2020 01:00:00 -2,2 -3,2 -4,7 5,0 8,0 8 4 11 6 N 1038,6 8 0 0,0
22.01.2020 00:00:00 -1,6 -2,9 -5,0 5,0 8,0 6 4 11 6 NNE 1039,1 11 0 0,0
21.01.2020 23:00:00 -1,6 -2,9 -3,7 5,0 8,0 8 4 13 7 NE 1039,5 10 0 0,0
21.01.2020 22:00:00 -1,3 -2,4 -4,6 5,1 8,0 7 4 14 7 NNE 1039,9 9 0 0,0
21.01.2020 21:00:00 -1,2 -2,3 -2,9 5,1 8,1 6 3 11 6 NE 1040,2 10 0 0,0
21.01.2020 20:00:00 -1,0 -1,8 -1,9 5,1 8,1 8 4 16 9 N 1040,1 8 0 0,0
21.01.2020 19:00:00 -0,6 -1,6 -1,7 5,1 8,0 8 4 14 8 N 1040,4 9 0 0,0
21.01.2020 18:00:00 -0,1 -1,1 -1,1 5,0 8,1 8 5 14 8 N 1040,5 4,0 0 0,0
21.01.2020 17:00:00 2,8 0,4 2,8 5,0 8,0 10 6 16 9 N 1040,5 16 54 0,0
21.01.2020 16:00:00 4,2 0,2 6,6 5,0 8,1 10 5 18 10 NNE 1040,5 19 60 0,0
21.01.2020 15:00:00 4,7 -0,5 9,0 5,0 8,1 7 4 13 7 N 1040,8 19 60 0,0
21.01.2020 14:00:00 4,4 -0,6 9,7 5,0 8,1 7 4 11 6 NNE 1041,6 17 60 0,0
21.01.2020 13:00:00 4,4 -1,0 9,3 5,1 8,1 4 2 10 5 E 1042,3 18 60 0,0
21.01.2020 12:00:00 3,3 -0,2 7,7 5,1 8,1 5 3 8 4 NE 1043,0 15 60 0,0
21.01.2020 11:00:00 1,7 -0,7 3,3 5,2 8,1 5 3 8 5 NE 1043,1 - 60 0,0
21.01.2020 10:00:00 0,2 -1,4 -2,2 5,3 8,1 8 4 10 5 NE 1042,6 8 58 0,0
21.01.2020 09:00:00 -1,2 -2,3 -4,6 5,3 8,1 8 4 10 5 ENE 1042,7 7 0 0,0
21.01.2020 08:00:00 -1,6 -2,6 -6,0 5,4 8,1 8 4 9 5 ENE 1042,9 6 0 0,0
21.01.2020 07:00:00 -0,9 -1,7 -5,5 5,4 8,1 5 3 8 4 E 1042,9 4,7 0 0,0
21.01.2020 06:00:00 -0,6 -1,7 -2,9 5,5 8,1 5 3 14 8 NE 1043,0 6 0 0,0
21.01.2020 05:00:00 -0,4 -1,2 -3,0 5,5 8,1 8 4 11 6 NNE 1043,0 3,9 0 0,0
21.01.2020 04:00:00 -0,6 -1,4 -2,3 5,5 8,2 5 3 14 7 ENE 1043,5 2,6 0 0,0
21.01.2020 03:00:00 0,6 -0,3 -1,8 5,5 8,1 11 6 14 8 NE 1043,8 3,4 0 0,0
21.01.2020 02:00:00 0,6 -0,3 -0,8 5,6 8,2 11 6 14 8 NE 1044,4 3,5 0 0,0
21.01.2020 01:00:00 1,6 0,7 0,4 5,6 8,1 9 5 17 9 NE 1044,9 2,6 0 0,0
21.01.2020 00:00:00 2,0 0,7 0,7 5,6 8,2 12 7 20 11 NE 1045,1 4,8 0 0,0
20.01.2020 23:00:00 2,6 2,2 0,4 5,6 8,2 9 5 16 9 ENE 1045,4 2,5 0 0,0
20.01.2020 22:00:00 2,1 1,5 -0,4 5,6 8,2 8 4 14 7 NE 1045,5 2,4 0 0,0
20.01.2020 21:00:00 2,6 1,9 1,7 5,6 8,2 9 5 20 11 NNE 1045,4 2,8 0 0,0
20.01.2020 20:00:00 3,5 2,5 3,4 5,6 8,2 15 8 23 12 NNE 1045,3 3,9 0 0,0
20.01.2020 19:00:00 3,8 2,9 3,6 5,5 8,2 14 8 26 14 NNE 1045,5 3,6 0 0,0
20.01.2020 18:00:00 4,2 3,2 4,0 5,5 8,2 16 9 24 13 NNE 1045,5 6 0 0,0
20.01.2020 17:00:00 4,9 3,1 4,7 5,4 8,2 10 5 22 12 NNE 1045,8 10 0 0,0
20.01.2020 16:00:00 5,3 3,1 5,9 5,4 8,2 14 7 19 11 NNE 1046,3 19 33 0,0
20.01.2020 15:00:00 5,8 3,0 8,6 5,3 8,2 14 8 26 14 NE 1046,8 18 60 0,0
20.01.2020 14:00:00 5,4 2,7 6,5 5,3 8,2 12 7 18 10 NE 1047,5 19 58 0,0
20.01.2020 13:00:00 3,8 2,5 3,3 5,3 8,2 10 5 16 9 ENE 1048,2 13 23 0,0
20.01.2020 12:00:00 2,4 2,0 2,7 5,4 8,2 11 6 24 13 NE 1048,9 8 3 0,0
20.01.2020 11:00:00 2,1 2,0 2,1 5,4 8,2 14 8 23 12 NE 1049,0 1,8 3 0,0
20.01.2020 10:00:00 1,7 1,6 1,3 5,4 8,2 12 7 20 11 ENE 1048,5 0,9 1 0,0
20.01.2020 09:00:00 1,2 1,1 1,1 5,5 8,3 13 7 20 11 NE 1048,5 0,9 0 0,0
20.01.2020 08:00:00 1,0 0,9 0,9 5,5 8,3 11 6 23 12 NE 1048,2 0,6 0 0,0
20.01.2020 07:00:00 0,9 0,6 0,7 5,5 8,2 14 7 22 12 ENE 1048,2 0,3 0 0,0
20.01.2020 06:00:00 0,9 0,6 -0,4 5,6 8,3 13 7 20 11 NNE 1047,7 1,2 0 0,0
20.01.2020 05:00:00 0,7 0,1 -0,8 5,6 8,3 11 6 17 9 N 1047,4 3,3 0 0,0
20.01.2020 04:00:00 0,6 -0,1 -1,0 5,6 8,3 12 7 14 8 N 1047,3 4,4 0 0,0
20.01.2020 03:00:00 0,6 -0,3 -1,1 5,7 8,3 6 3 14 7 NNE 1047,7 6 0 0,0
20.01.2020 02:00:00 1,1 0,1 -0,7 5,7 8,3 12 6 17 9 N 1047,6 8 0 0,0
20.01.2020 01:00:00 1,2 -0,1 -2,5 5,8 8,3 6 3 12 7 N 1047,9 10 0 0,0
20.01.2020 00:00:00 1,2 -0,3 0,2 5,8 8,3 9 5 18 10 NNE 1047,5 11 0 0,0
19.01.2020 23:00:00 1,3 -0,3 0,5 5,8 8,3 11 6 20 11 N 1046,9 12 0 0,0
19.01.2020 22:00:00 2,2 0,4 1,4 5,8 8,3 16 9 24 13 NNE 1046,3 13 0 0,0
19.01.2020 21:00:00 2,9 0,8 2,0 5,8 8,3 13 7 21 12 N 1045,9 15 0 0,0
19.01.2020 20:00:00 3,0 0,9 2,0 5,8 8,3 11 6 21 12 N 1045,2 15 0 0,0
19.01.2020 19:00:00 3,9 1,4 2,7 5,8 8,3 14 8 22 12 N 1044,5 17 0 0,0
19.01.2020 18:00:00 4,2 1,6 3,3 5,8 8,3 11 6 22 12 N 1043,8 18 0 0,0
19.01.2020 17:00:00 5,7 2,3 5,4 5,7 8,3 13 7 26 14 N 1042,5 19 49 0,0
19.01.2020 16:00:00 6,7 2,2 7,8 5,8 8,3 16 9 34 18 NNE 1041,9 20 56 0,0
19.01.2020 15:00:00 6,7 2,6 7,6 5,7 8,3 22 12 36 19 NNE 1041,3 20 54 0,0
19.01.2020 14:00:00 6,4 2,5 8,9 5,8 8,3 22 12 34 18 NNE 1041,2 19 60 0,0
19.01.2020 13:00:00 5,8 2,6 7,3 5,8 8,3 18 10 30 16 N 1040,8 20 60 0,0
19.01.2020 12:00:00 4,7 2,1 4,9 5,9 8,3 16 9 28 15 N 1040,9 19 52 0,0
19.01.2020 11:00:00 3,1 1,3 2,6 5,9 8,3 11 6 21 11 NNW 1040,8 20 44 0,0
19.01.2020 10:00:00 1,9 0,6 0,0 6,0 8,3 8 4 14 8 NNW 1039,9 20 31 0,0
19.01.2020 09:00:00 1,1 0,1 0,0 6,1 8,3 8 4 15 8 NW 1038,7 18 0 0,0
19.01.2020 08:00:00 1,1 -0,1 -0,1 6,1 8,4 10 5 18 10 NNW 1037,7 14 0 0,0
19.01.2020 07:00:00 1,3 0,0 -0,1 6,2 8,4 10 6 18 10 NNW 1037,0 20 0 0,0
19.01.2020 06:00:00 0,9 -0,1 -1,5 6,3 8,3 10 6 18 10 NNW 1036,6 19 0 0,0
19.01.2020 05:00:00 -0,5 -1,2 -2,4 6,4 8,3 8 4 12 6 NW 1036,4 9 0 0,0
19.01.2020 04:00:00 -0,3 -1,0 -2,6 6,5 8,4 9 5 12 7 NW 1035,7 10 0 0,0
19.01.2020 03:00:00 -0,5 -1,2 -2,7 6,5 8,4 9 5 16 9 WNW 1035,3 10 0 0,0
19.01.2020 02:00:00 -0,4 -1,2 -3,5 6,6 8,4 10 5 13 7 WNW 1034,5 11 0 0,0
19.01.2020 01:00:00 0,4 -0,6 -1,3 6,7 8,3 9 5 15 8 NW 1033,8 14 0 0,0
19.01.2020 00:00:00 0,9 -0,1 -3,7 6,7 8,4 9 5 11 6 NW 1033,2 14 0 0,0
18.01.2020 23:00:00 0,5 -0,5 -4,4 6,8 8,4 8 4 9 5 WNW 1032,6 14 0 0,0
18.01.2020 22:00:00 0,8 -0,5 -4,1 6,8 8,4 6 3 8 4 NNW 1032,2 18 0 0,0
18.01.2020 21:00:00 1,8 -0,3 -1,6 6,9 8,3 6 3 10 6 NNW 1031,5 20 0 0,0
18.01.2020 20:00:00 1,8 -0,1 -1,6 6,9 8,3 6 3 9 5 NNW 1030,8 19 0 0,0
18.01.2020 19:00:00 2,5 0,6 -1,7 6,9 8,4 6 3 7 4 WNW 1030,5 20 0 0,0
18.01.2020 18:00:00 3,7 1,1 -0,5 6,9 8,3 5 3 9 5 WNW 1030,0 20 0 0,0
18.01.2020 17:00:00 5,2 0,9 3,8 6,9 8,4 8 4 16 8 NW 1029,4 20 18 0,0
18.01.2020 16:00:00 6,5 2,2 7,0 6,9 8,4 9 5 16 8 NW 1028,6 20 42 0,0
18.01.2020 15:00:00 6,6 3,6 5,9 6,8 8,3 11 6 17 9 WNW 1028,1 20 48 0,0
18.01.2020 14:00:00 5,8 3,6 6,3 6,9 8,4 14 8 19 10 WNW 1028,0 20 12 0,0
18.01.2020 13:00:00 5,8 4,1 7,4 6,9 8,3 14 8 22 12 W 1028,0 20 10 0,0
18.01.2020 12:00:00 6,0 4,2 7,5 6,9 8,3 14 7 22 12 W 1028,0 20 52 0,0
18.01.2020 11:00:00 4,3 2,8 5,1 7,0 8,3 16 8 27 15 WSW 1027,9 20 60 0,0
18.01.2020 10:00:00 3,0 2,0 1,7 7,0 8,3 18 10 24 13 WSW 1027,2 20 54 0,0
18.01.2020 09:00:00 2,1 1,2 0,6 7,1 8,3 18 10 25 14 WSW 1026,6 20 0 0,0
18.01.2020 08:00:00 1,9 1,0 0,7 7,1 8,3 14 8 23 12 SW 1025,9 20 0 0,0
18.01.2020 07:00:00 2,3 1,3 1,2 7,2 8,3 16 9 21 11 SW 1025,2 20 0 0,0
18.01.2020 06:00:00 3,2 1,9 1,9 7,2 8,3 11 6 29 15 SW 1025,0 20 0 0,0
18.01.2020 05:00:00 3,6 2,0 2,3 7,3 8,3 18 10 32 17 WSW 1024,5 20 0 0,0
18.01.2020 04:00:00 3,9 2,1 2,8 7,4 8,3 20 11 30 16 WSW 1024,2 20 0 0,2
18.01.2020 03:00:00 4,0 2,0 3,1 7,4 8,3 20 11 29 16 WSW 1024,1 20 0 0,0
18.01.2020 02:00:00 3,6 1,6 2,8 7,5 8,3 16 8 24 13 SW 1023,9 20 0 0,0

tt = temperature
td = dewpoint
tt 5cm = temperature 5cm
tt -20cm = temperature -20cm
tt -100cm = temperature -100cm
ff = wind speed
fx = gusts
dd = wind direction
ppp = reduced air pressure
vv = visibility
sd = sunshine duration
rr = precipitation

Next stations